Location: Arbon
(43.0005°N, 0.7472°E)
Time: 21:49:19
(UTC+00:00)

Explorer 7 - Pass Details

Date: 05 December 2020
Orbit: 484 x 678 km, 50.3° (Epoch: 25 January)

Event Time Altitude Azimuth Distance (km) Brightness Sun altitude
Rises 22:23:21 0° 216° (SW) 3,009 - -63.0°
Reaches altitude 10° 22:25:49 10° 209° (SSW) 2,088 - -63.3°
Maximum altitude 22:30:21 41° 140° (SE) 952 - -63.9°
Drops below altitude 10° 22:34:43 10° 71° (ENE) 2,020 - -64.5°
Sets 22:37:05 0° 64° (ENE) 2,900 - -64.8°
